Change the Weather History Date:

Wednesday, November 6, 2013

  Actual Average Record
Temperature  
Mean Temperature 50 °F -  
Max Temperature 51 °F 50 °F 60 °F (2003)
Min Temperature 48 °F 41 °F 35 °F (2011)
Degree Days  
Heating Degree Days 16    
Moisture  
Dew Point 44 °F    
Average Humidity 82    
Maximum Humidity 100    
Minimum Humidity 56    
Precipitation  
Precipitation 0.24 in 0.13 in - ()
Sea Level Pressure  
Sea Level Pressure 29.42 in    
Wind  
Wind Speed 12 mph ()    
Max Wind Speed 20 mph    
Max Gust Speed -    
Visibility 6.2 miles    
Events Rain    
Averages and records for this station are not official NWS values.
T = Trace of Precipitation, MM = Missing Value Source: Averaged Metar Reports

Daily Weather History Graph

Daily Weather History Graph

Search for Another Location

Airport or City:

Trip Planner

Search our weather history database for the weather conditions in past years. The results will help you decide how hot, cold, wet, or windy it might be!

Date:

Astronomy

Nov. 06, 2013 Rise Set
Actual Time 7:26 AM GMT 4:36 PM GMT
Civil Twilight 6:48 AM GMT 5:14 PM GMT
Nautical Twilight 6:07 AM GMT 5:55 PM GMT
Astronomical Twilight 5:26 AM GMT 6:36 PM GMT
Moon 10:40 AM GMT (11/6) 7:13 PM GMT (11/6)
Length of Visible Light 10h 25m
Length of Day
9h 10m
Waxing Crescent, 12% of the Moon is Illuminated
Nov 6
Waxing Crescent
Nov 10
First Quarter
Nov 17
Full
Nov 25
Last Quarter
Dec 3
New

Hourly Weather History & Observations

Time (GMT) Temp. Dew Point Humidity Pressure Visibility Wind Dir Wind Speed Gust Speed Precip Events Conditions
12:00 AM 49 °F 41 °F 66% 29.42 in 19 mi West 18.4 mph - -   Partly Cloudy
12:50 AM 50.0 °F 39.2 °F 66% 29.42 in 6.2 mi West 17.3 mph - N/A   Mostly Cloudy
1:50 AM 50.0 °F 41.0 °F 71% 29.44 in 6.2 mi West 19.6 mph - N/A   Mostly Cloudy
2:50 AM 50.0 °F 39.2 °F 66% 29.42 in 6.2 mi West 19.6 mph - N/A   Mostly Cloudy
3:00 AM 50 °F 39 °F 56% 29.43 in 19 mi West 19.6 mph - -   Overcast
3:50 AM 50.0 °F 41.0 °F 71% 29.42 in 6.2 mi WSW 17.3 mph - N/A   Overcast
4:50 AM 50.0 °F 42.8 °F 76% 29.42 in 6.2 mi WSW 13.8 mph - N/A   Mostly Cloudy
5:50 AM 50.0 °F 41.0 °F 71% 29.42 in 6.2 mi WSW 13.8 mph - N/A   Overcast
6:00 AM 50 °F 41 °F 61% 29.44 in 19 mi WSW 13.8 mph - -   Overcast
6:50 AM 50.0 °F 41.0 °F 71% 29.42 in 6.2 mi WSW 15.0 mph - N/A   Mostly Cloudy
7:50 AM 50.0 °F 41.0 °F 71% 29.44 in 6.2 mi WSW 13.8 mph - N/A   Overcast
8:50 AM 50.0 °F 42.8 °F 76% 29.42 in 6.2 mi WSW 13.8 mph - N/A   Mostly Cloudy
9:00 AM 50 °F 43 °F 69% 29.44 in 10 mi WSW 13.8 mph - - Rain Rain
9:50 AM 51.8 °F 44.6 °F 76% 29.42 in 6.2 mi SW 15.0 mph - N/A Rain Light Rain
10:50 AM 50.0 °F 46.4 °F 87% 29.44 in 6.2 mi WSW 13.8 mph - N/A Rain Light Rain
11:14 AM 50.0 °F 46.4 °F 87% 29.44 in 6.2 mi WSW 15.0 mph - N/A Rain Light Rain
11:50 AM 50.0 °F 46.4 °F 87% 29.42 in 6.2 mi WSW 13.8 mph - N/A Rain Light Rain
12:00 PM 50 °F 46 °F 80% 29.44 in 6 mi WSW 13.8 mph - - Rain Light Rain
12:50 PM 50.0 °F 46.4 °F 87% 29.42 in 6.2 mi SW 10.4 mph - N/A Rain Light Rain
1:13 PM 50.0 °F 48.2 °F 94% 29.42 in 6.2 mi SW 10.4 mph - N/A Rain Light Rain
1:33 PM 50.0 °F 48.2 °F 94% 29.42 in 3.1 mi SW 8.1 mph - N/A Rain Light Rain
1:50 PM 50.0 °F 48.2 °F 94% 29.39 in 3.1 mi SW 8.1 mph - N/A Rain Light Rain
2:15 PM 50.0 °F 46.4 °F 87% 29.39 in 3.7 mi WSW 5.8 mph - N/A Rain Light Rain
2:38 PM 48.2 °F 48.2 °F 100% 29.39 in 2.5 mi WNW 3.5 mph - N/A Rain Light Rain
2:50 PM 48.2 °F 46.4 °F 93% 29.39 in 2.8 mi West 2.3 mph - N/A Rain Light Rain
3:00 PM 49 °F 47 °F 90% 29.39 in 3 mi West 2.3 mph - - Rain Light Rain
3:15 PM 50.0 °F 48.2 °F 94% 29.36 in 3.7 mi East 1.2 mph - N/A Rain Light Rain
3:30 PM 50.0 °F 48.2 °F 94% 29.36 in 2.5 mi NE 1.2 mph - N/A Rain Light Rain
3:50 PM 48.2 °F 46.4 °F 93% 29.36 in 3.1 mi East 3.5 mph - N/A Rain Light Rain
4:07 PM 48.2 °F 46.4 °F 93% 29.36 in 2.8 mi East 5.8 mph - N/A Rain Light Rain
4:50 PM 48.2 °F 46.4 °F 93% 29.36 in 2.5 mi East 4.6 mph - N/A Rain Light Rain
5:13 PM 48.2 °F 46.4 °F 93% 29.36 in 1.6 mi NE 2.3 mph - N/A Rain Rain
5:50 PM 48.2 °F 46.4 °F 93% 29.39 in 1.9 mi North 3.5 mph - N/A Rain Rain
6:00 PM 48 °F 47 °F 96% 29.39 in 2 mi North 3.5 mph - - Rain Heavy Rain
6:25 PM 48.2 °F 48.2 °F 100% 29.39 in 4.3 mi NW 9.2 mph - N/A Rain Light Rain
6:50 PM 48.2 °F 46.4 °F 93% 29.39 in 3.7 mi NW 13.8 mph - N/A Rain Light Rain
7:50 PM 48.2 °F 44.6 °F 87% 29.42 in 6.2 mi NW 9.2 mph - N/A   Overcast
8:50 PM 48.2 °F 41.0 °F 76% 29.47 in 6.2 mi WNW 13.8 mph - N/A   Mostly Cloudy
9:00 PM 48 °F 42 °F 72% 29.47 in 19 mi WNW 13.8 mph - -   Partly Cloudy
9:50 PM 48.2 °F 42.8 °F 82% 29.47 in 6.2 mi WNW 15.0 mph - N/A   Overcast
10:50 PM 48.2 °F 41.0 °F 76% 29.50 in 6.2 mi West 15.0 mph - N/A   Mostly Cloudy
11:50 PM 48.2 °F 41.0 °F 76% 29.53 in 6.2 mi WNW 15.0 mph - N/A   Scattered Clouds